Change the Weather History Date:

Thursday, December 13, 2012

  Actual Average Record
Temperature  
Mean Temperature 42 °F -  
Max Temperature 46 °F 35 °F 54 °F (1991)
Min Temperature 40 °F 22 °F 2 °F (1989)
Degree Days  
Heating Degree Days 22    
Moisture  
Dew Point 32 °F    
Average Humidity 68    
Maximum Humidity 80    
Minimum Humidity 58    
Precipitation  
Precipitation 0.00 in - - ()
Sea Level Pressure  
Sea Level Pressure 30.14 in    
Wind  
Wind Speed 15 mph (SW)    
Max Wind Speed 23 mph    
Max Gust Speed 36 mph    
Visibility 10 miles    
Events      
Averages and records for this station are not official NWS values.
T = Trace of Precipitation, MM = Missing Value Source: NWS Daily Summary

Daily Weather History Graph

Daily Weather History Graph

Search for Another Location

Airport or City:

Trip Planner

Search our weather history database for the weather conditions in past years. The results will help you decide how hot, cold, wet, or windy it might be!

Date:

Astronomy

Dec. 13, 2012 Rise Set
Actual Time 8:12 AM EST 5:08 PM EST
Civil Twilight 7:39 AM EST 5:40 PM EST
Nautical Twilight 7:02 AM EST 6:17 PM EST
Astronomical Twilight 6:27 AM EST 6:52 PM EST
Moon 8:19 AM EST (12/13) 5:50 PM EST (12/13)
Length of Visible Light 10h 01m
Length of Day
8h 55m
New Moon, 0% of the Moon is Illuminated
Dec 13
New Moon
Dec 20
First Quarter
Dec 28
Full
Jan 4
Last Quarter
Jan 11
New

Hourly Weather History & Observations

Time (EST) Temp. Windchill Dew Point Humidity Pressure Visibility Wind Dir Wind Speed Gust Speed Precip Events Conditions
12:15 AM 40.1 °F 32.4 °F 30.7 °F 69% 30.21 in 10.0 mi SSW 13.8 mph 21.9 mph N/A   Clear
12:35 AM 40.1 °F 32.0 °F 31.1 °F 70% 30.21 in 10.0 mi SSW 15.0 mph 23.0 mph N/A   Clear
12:55 AM 40.1 °F 33.2 °F 31.3 °F 71% 30.20 in 10.0 mi SSW 11.5 mph 25.3 mph N/A   Clear
1:15 AM 40.5 °F 32.1 °F 31.6 °F 71% 30.20 in 10.0 mi SSW 16.1 mph 24.2 mph N/A   Clear
1:35 AM 40.6 °F 33.0 °F 31.8 °F 71% 30.20 in 10.0 mi SSW 13.8 mph 21.9 mph N/A   Clear
1:55 AM 40.5 °F 31.8 °F 32.0 °F 72% 30.20 in 10.0 mi SSW 17.3 mph 23.0 mph N/A   Clear
2:15 AM 40.5 °F 32.5 °F 32.0 °F 72% 30.21 in 10.0 mi SSW 15.0 mph 23.0 mph N/A   Clear
2:35 AM 40.8 °F 32.9 °F 32.2 °F 71% 30.22 in 10.0 mi SSW 15.0 mph 21.9 mph N/A   Clear
2:55 AM 41.0 °F 32.8 °F 32.0 °F 70% 30.22 in 10.0 mi SSW 16.1 mph 21.9 mph N/A   Clear
3:15 AM 40.8 °F 33.3 °F 32.0 °F 71% 30.22 in 10.0 mi SSW 13.8 mph 23.0 mph N/A   Clear
3:35 AM 40.1 °F 32.7 °F 32.0 °F 73% 30.22 in 10.0 mi SSW 12.7 mph 20.7 mph N/A   Clear
3:55 AM 40.5 °F 32.5 °F 32.0 °F 72% 30.22 in 10.0 mi SSW 15.0 mph 23.0 mph N/A   Clear
4:15 AM 40.6 °F 32.3 °F 32.0 °F 71% 30.21 in 10.0 mi SSW 16.1 mph 21.9 mph N/A   Clear
4:35 AM 40.3 °F 32.6 °F 32.0 °F 72% 30.20 in 10.0 mi SSW 13.8 mph 21.9 mph N/A   Clear
4:55 AM 40.3 °F 31.9 °F 31.8 °F 72% 30.19 in 10.0 mi SSW 16.1 mph 20.7 mph N/A   Clear
5:15 AM 40.3 °F 31.6 °F 32.0 °F 72% 30.18 in 10.0 mi SSW 17.3 mph 21.9 mph N/A   Clear
5:34 AM 40.5 °F 33.6 °F 31.6 °F 71% 30.19 in 10.0 mi SSW 11.5 mph 18.4 mph N/A   Clear
5:55 AM 40.1 °F 31.3 °F 31.8 °F 72% 30.18 in 10.0 mi SSW 17.3 mph 20.7 mph N/A   Clear
6:15 AM 40.1 °F 31.6 °F 31.3 °F 71% 30.18 in 10.0 mi SSW 16.1 mph 25.3 mph N/A   Clear
6:34 AM 40.3 °F 32.2 °F 31.6 °F 71% 30.18 in 10.0 mi SSW 15.0 mph 23.0 mph N/A   Clear
7:15 AM 40.3 °F 31.9 °F 31.1 °F 70% 30.18 in 10.0 mi SW 16.1 mph 21.9 mph N/A   Clear
7:34 AM 40.5 °F 32.1 °F 31.5 °F 70% 30.17 in 10.0 mi SSW 16.1 mph 23.0 mph N/A   Clear
7:55 AM 40.1 °F 31.6 °F 31.1 °F 70% 30.17 in 10.0 mi SSW 16.1 mph 21.9 mph N/A   Clear
8:15 AM 40.3 °F 32.2 °F 31.6 °F 71% 30.17 in 10.0 mi SSW 15.0 mph - N/A   Clear
8:35 AM 40.3 °F 32.6 °F 31.6 °F 71% 30.17 in 10.0 mi SSW 13.8 mph 18.4 mph N/A   Clear
8:55 AM 41.4 °F 34.3 °F 32.0 °F 69% 30.16 in 10.0 mi SSW 12.7 mph 20.7 mph N/A   Clear
9:15 AM 41.4 °F 33.3 °F 32.0 °F 69% 30.15 in 10.0 mi SSW 16.1 mph 23.0 mph N/A   Clear
9:35 AM 42.1 °F 33.3 °F 32.0 °F 67% 30.15 in 10.0 mi SSW 19.6 mph 26.5 mph N/A   Clear
9:55 AM 42.8 °F 34.8 °F 32.2 °F 66% 30.15 in 10.0 mi SSW 17.3 mph 25.3 mph N/A   Clear
10:15 AM 42.8 °F 34.8 °F 32.0 °F 66% 30.15 in 10.0 mi SSW 17.3 mph 26.5 mph N/A   Clear
10:35 AM 43.0 °F 35.4 °F 32.0 °F 65% 30.15 in 10.0 mi SSW 16.1 mph 26.5 mph N/A   Clear
10:55 AM 43.2 °F 34.5 °F 32.0 °F 65% 30.14 in 10.0 mi SSW 20.7 mph 29.9 mph N/A   Clear
11:15 AM 43.9 °F 35.4 °F 32.2 °F 63% 30.14 in 10.0 mi SSW 20.7 mph 29.9 mph N/A   Clear
11:35 AM 43.9 °F 35.9 °F 32.2 °F 63% 30.14 in 10.0 mi SSW 18.4 mph 29.9 mph N/A   Clear
11:55 AM 43.9 °F 35.0 °F 32.5 °F 64% 30.13 in 10.0 mi SSW 23.0 mph 29.9 mph N/A   Clear
12:15 PM 43.9 °F 35.7 °F 32.2 °F 63% 30.12 in 10.0 mi SSW 19.6 mph 33.4 mph N/A   Clear
12:35 PM 44.2 °F 36.7 °F 32.0 °F 62% 30.12 in 10.0 mi SSW 17.3 mph 32.2 mph N/A   Clear
12:55 PM 45.1 °F 36.6 °F 32.0 °F 60% 30.11 in 10.0 mi SSW 23.0 mph 35.7 mph N/A   Clear
1:15 PM 45.1 °F 36.6 °F 32.0 °F 60% 30.10 in 10.0 mi SSW 23.0 mph 26.5 mph N/A   Clear
1:35 PM 45.3 °F 37.1 °F 32.0 °F 60% 30.10 in 10.0 mi SSW 21.9 mph 27.6 mph N/A   Clear
1:55 PM 43.7 °F 35.4 °F 31.3 °F 62% 30.09 in 10.0 mi SW 19.6 mph 27.6 mph N/A   Clear
2:15 PM 43.2 °F 34.5 °F 31.1 °F 62% 30.08 in 10.0 mi SSW 20.7 mph 27.6 mph N/A   Clear
2:34 PM 43.7 °F 35.4 °F 31.6 °F 63% 30.08 in 10.0 mi SSW 19.6 mph 27.6 mph N/A   Clear
2:55 PM 43.2 °F 35.0 °F 30.9 °F 62% 30.07 in 10.0 mi SSW 18.4 mph 26.5 mph N/A   Clear
3:15 PM 43.0 °F 34.5 °F 30.2 °F 61% 30.07 in 10.0 mi SSW 19.6 mph 28.8 mph N/A   Clear
3:34 PM 43.0 °F 35.1 °F 29.5 °F 59% 30.06 in 10.0 mi SSW 17.3 mph 29.9 mph N/A   Clear
3:55 PM 42.8 °F 34.5 °F 29.1 °F 58% 30.05 in 10.0 mi SSW 18.4 mph 28.8 mph N/A   Clear
4:15 PM 42.8 °F 35.1 °F 29.8 °F 60% 30.06 in 10.0 mi SSW 16.1 mph - N/A   Clear
4:35 PM 42.8 °F 34.8 °F 30.9 °F 63% 30.06 in 10.0 mi SSW 17.3 mph 24.2 mph N/A   Clear
4:55 PM 42.8 °F 35.4 °F 31.6 °F 65% 30.06 in 10.0 mi SSW 15.0 mph 25.3 mph N/A   Clear
5:35 PM 42.8 °F 35.1 °F 32.2 °F 66% 30.05 in 10.0 mi SSW 16.1 mph 27.6 mph N/A   Clear
8:14 PM 42.8 °F 37.0 °F 34.7 °F 73% 30.09 in 10.0 mi WSW 10.4 mph - N/A   Clear
8:35 PM 42.6 °F 39.9 °F 35.8 °F 77% 30.09 in 10.0 mi West 4.6 mph - N/A   Clear
9:15 PM 41.2 °F 38.2 °F 34.0 °F 76% 30.08 in 10.0 mi WSW 4.6 mph - N/A   Clear
9:35 PM 41.0 °F 38.0 °F 34.9 °F 79% 30.08 in 10.0 mi West 4.6 mph - N/A   Clear
9:55 PM 40.3 °F 37.1 °F 34.7 °F 80% 30.09 in 10.0 mi West 4.6 mph - N/A   Clear
10:15 PM 41.4 °F 39.4 °F 32.7 °F 71% 30.09 in 10.0 mi West 3.5 mph - N/A   Clear
10:35 PM 40.6 °F 36.7 °F 31.6 °F 70% 30.09 in 10.0 mi West 5.8 mph - N/A   Clear
10:55 PM 40.5 °F 37.3 °F 31.6 °F 71% 30.09 in 10.0 mi West 4.6 mph - N/A   Clear
11:15 PM 41.0 °F 36.4 °F 29.7 °F 64% 30.10 in 10.0 mi West 6.9 mph - N/A   Clear
11:35 PM 40.1 °F 36.1 °F 27.7 °F 61% 30.10 in 10.0 mi West 5.8 mph - N/A   Clear
11:55 PM 40.1 °F 36.1 °F 27.1 °F 60% 30.11 in 10.0 mi West 5.8 mph - N/A   Clear